Regional Weather Roundup
Issued by NWS Goodland, KS

Home | Current Version | Previous Version | Graphics & Text | Print | Product List | Glossary On
Versions: 1 2 3 4 5 6 7 8 9 10 11 12 13 14 15 16 17 18 19 20 21 22 23 24 25 26 27 28 29 30 31 32 33 34 35 36 37 38 39 40 41 42 43 44 45 46 47 48 49 50
000
ASUS43 KGLD 252308
RWRGLD

GOODLAND FORECAST AREA HOURLY WEATHER ROUNDUP
NATIONAL WEATHER SERVICE GOODLAND KS
500 PM MDT THU AUG 25 2016

...OFFICIAL OBSERVATIONS...

CITY           SKY/WX    TMP DP  RH WIND       PRES   REMARKS
GOODLAND KS    SUNNY     75  46  35 E13       30.15F
HILL CITY KS   PTSUNNY   75  54  47 NE9       30.13F
IMPERIAL NEB   SUNNY     78  43  28 E8        30.15F
MCCOOK NEB     SUNNY     78  51  38 E12       30.13F
AKRON CO       CLOUDY    73  40  30 SE12      30.20R
BURLINGTON CO  SUNNY     74  44  34 SE14G20   30.17F
LIMON CO       CLOUDY    72  41  32 SE15      30.22R
$$

...UNOFFICIAL OBSERVATIONS...

CITY           SKY/WX    TMP DP  RH WIND       PRES   REMARKS
COLBY KS       SUNNY     75  52  43 E10       30.16F
LENORA KS        N/A     73  32  22 MISG        N/A
NORTON KS      SUNNY     75  43  31 NE9       30.12F
SHARON SPRINGS   N/A     73  58  59 S5G14       N/A
TRENTON NEB      N/A     77  32  19 MISG        N/A
KIT CARSON CO    N/A     74  51  43 MISG        N/A
YUMA CO          N/A     74  47  37 CALM        N/A
$$




USA.gov is the U.S. government's official web portal to all federal, state and local government web resources and services.